Location: ????????
(48.4751°N, 37.6926°E)
Time: 03:19:16
(UTC+00:00)

CSL-04 Rocket - Pass Details

Date: 20 January 2021
Orbit: 806 x 860 km, 98.9° (Epoch: 24 February)

Event Time Altitude Azimuth Distance (km) Brightness Sun altitude
Rises 16:49:42 0° 174° (S) 3,348 6.8 -26.2°
Reaches altitude 10° 16:52:03 10° 178° (S) 2,427 6.1 -26.6°
Maximum altitude 16:57:23 60° 258° (WSW) 955 4.1 -27.5°
Drops below altitude 10° 17:02:49 10° 339° (NNW) 2,479 6.4 -28.4°
Sets 17:05:15 0° 343° (NNW) 3,426 7.1 -28.8°
